User: anonymous   Login
Location: Unspecified
(0.0000°N, 0.0000°E)
Time: 10:26:59
(UTC+00:00)
Language:

AMOS 1 - Orbit

View from above orbital plane
View from above orbital plane
View from above satellite
View from above satellite

Ground track
Ground track

The orbit data is extracted from the following two-line orbital elements,

1 23865U 96030B   16175.52657287 -.00000052 +00000-0 +00000-0 0  9992
2 23865 006.4476 056.5550 0010674 104.5754 025.5826 00.97116542073174
Epoch (UTC): 23 June 2016 12:38:15
Eccentricity: 0.0010674
inclination: 6.4476°
perigee height: 36648 km
apogee height: 36740 km
right ascension of ascending node: 56.5550°
argument of perigee: 104.5754°
revolutions per day: 0.97116542
mean anomaly at epoch: 25.5826°
orbit number at epoch: 7317

The dashed part of the orbit path shows where the satellite is in the earth's shadow,  

DLR